Weather in Morpeth

United Kingdom     55°10′02″N   1°41′25″W
temp.,
°C
wind,
m/s
gust,
m/s
humid.,
%
clouds,
%
prec.,
mm/h
press.,
hPa
HPBL,
m
23 october, sat
sat2301:00+5sw339292 0.0 102140
04:00+5sw339371 0.0 102055
07:00+5ssw229281 0.0 101924
10:00+10ssw51181100 0.0 1019745
13:00+12ssw71373100 0.0 10181202
16:00+11ssw7147499 0.0 10161153
19:00+10ssw61377100 0.0 1015778
22:00+10ssw71378100 0.0 1015751
24 october, sun
sun2401:00+9ssw61279100 0.0 1014514
04:00+9s6137946 0.0 1012532
07:00+10s81475100 0.0 1010644
10:00+13ssw8157563 0.0 10101150
13:00+13ssw7147795 0.0 10091141
16:00+13ssw814736 0.0 10081132
19:00+11ssw714766 0.0 1008720
22:00+11ssw7147979 0.0 1008760
25 october, mon
mon2501:00+11sw713817 0.0 1007727
04:00+8sw5118891 0.0 1008449
07:00+7sw51187100 0.0 1008382
10:00+9sw61180100 0.0 1009879
13:00+11wsw711664 0.0 10101122
16:00+10wsw611710 0.0 10101071
19:00+7wsw410855 0.0 1012258
22:00+6sw37925 0.0 1013135
26 october, tue
tue2601:00+6sw399371 0.0 1013201
04:00+8sw51384100 0.0 1013516
07:00+9ssw51279100 0.0 1012506
10:00+11sw71582100 0.0 1011921
13:00+12wsw71590100 0.1 1011837
16:00+13wsw91684100 0.0 1011846
19:00+13wsw91881100 0.0 1011632
22:00+13sw71586100 0.0 1012642
27 october, wed
wed2701:00+14sw71683100 0.0 1011768
04:00+14sw91973100 0.0 1010821
07:00+14sw9188084 0.0 1011873
10:00+15sw9167887 0.0 10111001
13:00+15ssw91879100 0.0 10111254
16:00+15ssw10197699 0.0 10091264
19:00+15ssw102074100 0.0 10091334
22:00+15sw91683100 0.1 10101198